Hourly Weather Roundup
Issued by NWS Central Illinois

Home | Current Version | Previous Version | Text Only | Print | Product List | Glossary On
Versions: 1 2 3 4 5 6 7 8 9 10 11 12 13 14 15 16 17 18 19 20 21 22 23 24 25 26 27 28 29 30 31 32 33 34 35 36 37 38 39 40 41 42 43 44 45 46 47 48 49 50
000
NZUS43 KILX 210110
HWRILX

AREA WEATHER ROUNDUP
NATIONAL WEATHER SERVICE, LINCOLN IL
700 PM CST SAT DEC 20 2014


CITY           SKY/WX    TMP DP  RH WIND       PRES   REMARKS
BLOOMINGTON    CLOUDY    32  30  92 S8        30.26S WCI  25
CHAMPAIGN      CLOUDY    29  26  89 CALM      30.28R
DECATUR        CLOUDY    34  28  79 SE7       30.27R WCI  28
FLORA          CLEAR     34  30  85 SE5       30.30R WCI  30
GALESBURG      CLOUDY    33  30  88 SE7       30.21F WCI  27
JACKSONVILLE   CLOUDY    39  34  81 SE3       30.24R
LACON          CLOUDY    32  28  83 S6        30.25S WCI  27
LAWRENCEVILLE  CLEAR     29  26  89 E3        30.30S
LITCHFIELD     CLOUDY    36  30  80 SE3       30.26R
$$


CITY           SKY/WX    TMP DP  RH WIND       PRES   REMARKS
LINCOLN        CLOUDY    35  31  85 SE5       30.27S WCI  31
MACOMB         CLOUDY    34  33  94 SE6       30.24S FOG     WCI  29
MATTOON        PTCLDY    28  24  85 E8        30.26F WCI  20
MT CARMEL AP   CLEAR     32  28  86 CALM      30.30S
OLNEY-NOBLE AP CLEAR     30  27  86 CALM      30.30R
PARIS          CLOUDY    32  29  89 CALM      30.29S
PEORIA         CLOUDY    35  27  72 SE6       30.25S WCI  30
PONTIAC        CLOUDY    33  31  90 S7        30.27S WCI  27
RANTOUL        CLOUDY    33  30  88 SE5       30.27S WCI  29
ROBINSON       CLEAR     28  26  91 CALM      30.31S
SPRINGFIELD    CLOUDY    38  31  76 SE8       30.26R WCI  32
TAYLORVILLE    CLOUDY    36  30  80 SE7       30.26S WCI  30
$$

...REGIONAL REPORTS...


CITY           SKY/WX    TMP DP  RH WIND       PRES   REMARKS
CHICAGO O`HARE CLOUDY    31  25  78 S6        30.25S WCI  25
KANKAKEE       CLOUDY    32  28  84 S3        30.29R
MOLINE         CLOUDY    34  28  79 SE6       30.22R WCI  29
MOUNT VERNON   CLOUDY    37  27  65 E3        30.29R
PITTSFIELD     CLOUDY    37  33  87 SE5       30.24S WCI  33
QUINCY         CLOUDY    36  33  89 SE9       30.20F FOG     WCI  29
ROCKFORD       CLOUDY    31  26  82 SE7       30.26S WCI  24
$$


CITY           SKY/WX    TMP DP  RH WIND       PRES   REMARKS
BURLINGTON     CLOUDY    36  34  92 S8        30.20S FOG     WCI  30
CEDAR RAPIDS   CLOUDY    32  32 100 SE9       30.17F FOG     WCI  24
DES MOINES     CLOUDY    36  33  89 S6        30.14S WCI  31
KIRKSVILLE     CLOUDY    37  36  96 S8        30.18S WCI  31
OTTUMWA        CLOUDY    35  34  96 SE6       30.16S FOG     WCI  30
ST LOUIS       CLOUDY    43  32  65 SE8       30.25R
$$


CITY           SKY/WX    TMP DP  RH WIND       PRES   REMARKS
TERRE HAUTE    PTCLDY    30  25  81 CALM      30.29S
EVANSVILLE     CLEAR     31  25  78 NE3       30.31R
INDIANAPOLIS   CLOUDY    27  22  81 CALM      30.28S
LAFAYETTE      CLOUDY    30  25  81 SE3       30.29S
MADISON        CLOUDY    30  26  85 S8        30.22S WCI  22
MILWAUKEE      FLURRIES  31  23  72 S3        30.25S
$$





USA.gov is the U.S. government's official web portal to all federal, state and local government web resources and services.